Temp
-8 -7 -7 -7 -7 -7 -7 -7 -7 -7 -7 -7 -8 -7 -7 -7 -6 -6 -7 -6 -6 -5 -6 -6 -5 -6 -6 -5 -5 -5 -5 -6 -6 -5 -6 -6 -6 -6 -6 -6 -6 -6 -6 -6 -6 -6 -6 -6 -6
-9 -8 -8 -8 -8 -7 -7 -8 -8 -8 -8 -7 -7 -7 -7 -7 -7 -7 -6 -7 -7 -6 -6 -6 -6 -6 -6 -6 -5 -6 -6 -6 -6 -6 -6 -6 -6 -6 -6 -6 -6 -6 -6 -6 -6 -6 -6 -6 -6
-9 -9 -8 -8 -7 -7 -8 -8 -8 -8 -8 -8 -7 -7 -7 -7 -7 -7 -7 -7 -7 -6 -6 -7 -7 -7 -6 -6 -6 -6 -7 -7 -7 -7 -7 -7 -7 -7 -7 -7 -7 -7 -7 -7 -7 -7 -7 -6 -6
-9 -9 -9 -8 -8 -8 -9 -8 -9 -9 -8 -8 -8 -8 -8 -7 -7 -8 -8 -7 -7 -6 -6 -7 -7 -7 -7 -6 -6 -7 -7 -7 -7 -7 -7 -7 -7 -7 -7 -7 -7 -7 -7 -7 -7 -7 -7 -7 -7
-9 -10 -9 -8 -8 -9 -9 -8 -9 -8 -8 -8 -8 -8 -8 -8 -7 -7 -8 -8 -7 -7 -6 -7 -7 -7 -7 -7 -7 -7 -7 -7 -7 -7 -7 -8 -7 -8 -7 -7 -7 -7 -7 -8 -8 -8 -8 -7 -7
-9 -10 -8 -8 -8 -9 -9 -9 -9 -9 -8 -8 -8 -8 -8 -8 -8 -8 -8 -8 -8 -8 -7 -6 -7 -8 -8 -8 -8 -8 -7 -7 -7 -7 -8 -8 -8 -8 -8 -8 -8 -8 -8 -8 -8 -8 -8 -8 -8
-9 -9 -9 -8 -8 -10 -10 -9 -9 -9 -9 -8 -8 -8 -8 -9 -8 -8 -8 -8 -8 -8 -7 -7 -7 -8 -8 -8 -8 -8 -8 -7 -7 -8 -8 -8 -8 -8 -8 -8 -8 -8 -8 -8 -8 -8 -8 -8 -8
-9 -9 -9 -8 -8 -9 -10 -10 -9 -9 -9 -9 -9 -9 -9 -8 -9 -8 -8 -8 -8 -9 -9 -8 -9 -9 -9 -8 -8 -8 -8 -8 -8 -7 -8 -8 -8 -8 -9 -9 -8 -8 -8 -8 -8 -8 -8 -8 -8
-10 -9 -8 -8 -8 -9 -11 -11 -10 -10 -10 -9 -10 -10 -9 -8 -9 -9 -9 -8 -8 -8 -9 -9 -9 -9 -9 -9 -8 -8 -8 -8 -8 -8 -8 -8 -9 -9 -9 -9 -9 -9 -9 -9 -9 -9 -9 -9 -9
-10 -9 -9 -10 -9 -10 -10 -10 -11 -9 -9 -10 -10 -10 -10 -9 -9 -9 -10 -9 -9 -8 -9 -10 -10 -9 -9 -9 -9 -9 -9 -9 -9 -9 -9 -9 -9 -9 -9 -9 -9 -9 -9 -9 -9 -9 -9 -9 -9
-10 -10 -10 -10 -10 -10 -10 -10 -9 -9 -9 -9 -10 -10 -10 -10 -10 -9 -9 -10 -10 -9 -8 -9 -9 -10 -9 -9 -9 -9 -9 -9 -9 -9 -9 -9 -9 -9 -10 -10 -10 -10 -9 -9 -9 -9 -9 -9 -10
-10 -10 -10 -10 -10 -10 -10 -10 -10 -9 -9 -10 -10 -9 -8 -8 -9 -9 -9 -9 -10 -10 -10 -9 -9 -9 -10 -9 -10 -9 -9 -9 -10 -10 -10 -10 -10 -10 -10 -10 -10 -10 -10 -10 -9 -9 -9 -9 -9
-11 -10 -10 -10 -11 -11 -11 -10 -10 -10 -10 -10 -10 -10 -10 -10 -9 -9 -9 -9 -9 -9 -10 -10 -10 -10 -10 -10 -10 -10 -10 -10 -10 -10 -10 -10 -10 -10 -10 -10 -10 -10 -10 -10 -10 -10 -10 -9 -9
-11 -11 -11 -11 -11 -11 -11 -11 -10 -10 -11 -11 -11 -10 -10 -10 -10 -10 -10 -9 -10 -10 -9 -10 -11 -11 -10 -10 -10 -10 -10 -10 -10 -10 -10 -9 -9 -9 -9 -10 -10 -11 -11 -11 -10 -11 -11 -10 -10
-12 -12 -12 -12 -12 -11 -11 -10 -10 -11 -11 -11 -11 -11 -11 -11 -11 -11 -11 -11 -11 -11 -10 -10 -10 -10 -10 -11 -11 -11 -11 -11 -10 -10 -10 -10 -10 -10 -10 -10 -9 -9 -10 -11 -10 -10 -11 -11 -11
-12 -12 -12 -12 -12 -12 -11 -10 -11 -11 -11 -11 -11 -11 -11 -11 -11 -11 -11 -12 -12 -12 -11 -11 -11 -11 -11 -10 -10 -10 -10 -10 -11 -11 -11 -11 -10 -11 -11 -10 -10 -10 -10 -10 -10 -11 -10 -11 -12
-13 -12 -12 -12 -12 -12 -11 -11 -12 -12 -11 -11 -11 -11 -11 -11 -11 -11 -12 -12 -12 -12 -13 -12 -11 -11 -12 -11 -11 -10 -10 -10 -10 -11 -10 -11 -11 -10 -10 -11 -11 -12 -10 -10 -10 -9 -11 -10 -11
-12 -12 -12 -12 -12 -12 -12 -11 -11 -12 -12 -11 -11 -11 -12 -11 -11 -11 -12 -12 -12 -12 -12 -13 -12 -12 -13 -12 -11 -11 -11 -10 -10 -11 -11 -11 -11 -11 -10 -11 -11 -10 -10 -10 -10 -11 -11 -11 -10
-13 -13 -13 -13 -13 -12 -12 -11 -12 -12 -12 -12 -12 -12 -12 -12 -12 -12 -12 -12 -13 -13 -13 -12 -12 -13 -13 -12 -12 -11 -11 -12 -12 -12 -13 -12 -10 -10 -12 -12 -11 -11 -11 -11 -10 -10 -10 -11 -11
-14 -14 -13 -13 -13 -13 -12 -12 -13 -13 -12 -12 -12 -13 -12 -12 -12 -12 -12 -12 -13 -13 -13 -13 -13 -13 -13 -13 -13 -12 -12 -12 -12 -12 -13 -12 -12 -10 -10 -11 -11 -11 -11 -11 -11 -11 -11 -11 -11
-13 -13 -13 -13 -13 -13 -12 -12 -12 -13 -12 -12 -13 -13 -14 -14 -13 -13 -13 -13 -13 -13 -13 -13 -13 -13 -13 -13 -13 -13 -13 -12 -12 -12 -13 -13 -13 -12 -12 -11 -11 -12 -11 -12 -12 -11 -11 -11 -11
-13 -14 -14 -13 -13 -13 -13 -11 -12 -12 -13 -13 -13 -14 -14 -14 -14 -14 -14 -14 -14 -14 -14 -14 -14 -14 -14 -13 -13 -13 -13 -13 -13 -13 -13 -13 -13 -13 -13 -13 -12 -12 -12 -12 -12 -12 -12 -11 -11
-14 -14 -14 -14 -14 -13 -13 -12 -12 -13 -13 -14 -15 -15 -15 -15 -14 -14 -14 -14 -14 -14 -14 -14 -14 -14 -14 -14 -14 -14 -13 -13 -13 -13 -13 -13 -13 -13 -13 -12 -12 -12 -12 -12 -12 -11 -11 -11 -11
-15 -15 -15 -15 -15 -14 -15 -14 -13 -14 -15 -15 -15 -15 -15 -16 -15 -15 -14 -14 -15 -15 -14 -14 -14 -14 -14 -14 -14 -14 -14 -14 -14 -13 -13 -13 -13 -12 -12 -12 -12 -12 -12 -11 -12 -11 -11 -11 -11
-16 -16 -15 -15 -14 -14 -14 -14 -13 -15 -16 -15 -16 -17 -17 -17 -17 -16 -16 -15 -15 -15 -15 -15 -15 -15 -15 -15 -15 -14 -14 -14 -14 -13 -13 -13 -13 -12 -12 -12 -12 -12 -12 -12 -12 -12 -12 -11 -10
-15 -15 -16 -15 -15 -14 -16 -14 -16 -16 -17 -17 -17 -18 -17 -17 -17 -17 -16 -16 -16 -15 -15 -15 -16 -15 -16 -16 -16 -16 -16 -15 -15 -14 -14 -13 -13 -13 -13 -13 -12 -13 -13 -13 -13 -13 -12 -11 -12
-15 -15 -17 -17 -17 -16 -16 -16 -17 -18 -18 -18 -18 -18 -18 -17 -17 -17 -16 -16 -16 -16 -16 -16 -16 -16 -16 -16 -16 -16 -16 -16 -15 -15 -14 -13 -13 -13 -13 -13 -12 -12 -12 -12 -12 -13 -13 -13 -13
-16 -17 -17 -18 -18 -18 -18 -18 -18 -19 -19 -19 -20 -18 -18 -18 -18 -18 -17 -17 -17 -16 -16 -17 -17 -17 -16 -16 -17 -17 -17 -17 -15 -15 -14 -14 -14 -13 -13 -13 -13 -13 -13 -12 -12 -13 -13 -13 -13
-17 -17 -18 -19 -19 -19 -19 -18 -19 -20 -19 -20 -20 -19 -19 -18 -18 -17 -17 -17 -17 -17 -16 -16 -17 -17 -17 -17 -17 -17 -17 -17 -16 -15 -15 -14 -14 -13 -13 -13 -13 -13 -13 -13 -13 -13 -13 -14 -14
-17 -18 -19 -20 -19 -20 -20 -18 -20 -20 -19 -20 -19 -19 -19 -19 -18 -18 -17 -17 -17 -17 -17 -16 -17 -17 -17 -17 -17 -18 -18 -17 -17 -16 -16 -15 -14 -14 -13 -13 -13 -13 -13 -13 -14 -13 -14 -14 -14
Height
5854 5858 5862 5866 5871 5873 5876 5879 5878 5879 5883 5886 5890 5892 5895 5897 5900 5904 5904 5904 5906 5907 5908 5910 5912 5913 5913 5914 5913 5912 5913 5914 5913 5913 5914 5914 5916 5917 5917 5917 5916 5916 5915 5913 5913 5912 5913 5912 5911
5847 5852 5855 5859 5864 5869 5873 5873 5873 5874 5878 5882 5887 5889 5891 5894 5898 5898 5901 5902 5903 5905 5906 5907 5909 5911 5912 5912 5912 5912 5913 5913 5913 5914 5915 5915 5916 5917 5918 5917 5915 5914 5914 5914 5912 5912 5912 5912 5912
5841 5845 5848 5851 5857 5865 5867 5867 5869 5870 5874 5876 5881 5886 5888 5891 5894 5895 5898 5900 5900 5902 5904 5905 5907 5909 5911 5911 5911 5911 5912 5912 5913 5914 5915 5916 5917 5917 5917 5917 5915 5914 5913 5913 5913 5912 5911 5911 5911
5833 5838 5842 5844 5852 5858 5858 5859 5862 5865 5868 5870 5875 5881 5884 5887 5889 5891 5893 5895 5898 5900 5902 5902 5904 5907 5908 5910 5910 5911 5911 5912 5913 5914 5914 5915 5916 5916 5917 5916 5915 5914 5913 5912 5912 5911 5910 5910 5908
5825 5830 5834 5839 5846 5853 5852 5851 5855 5859 5862 5866 5868 5872 5876 5880 5884 5886 5889 5891 5893 5896 5899 5900 5903 5904 5906 5907 5908 5910 5911 5912 5912 5913 5914 5914 5914 5915 5915 5915 5914 5914 5913 5912 5911 5911 5910 5909 5908
5818 5823 5828 5833 5842 5844 5844 5845 5848 5852 5855 5860 5864 5867 5871 5874 5878 5881 5883 5885 5888 5891 5894 5897 5898 5901 5902 5904 5905 5907 5909 5910 5911 5911 5912 5912 5913 5914 5914 5914 5913 5913 5912 5911 5910 5910 5908 5908 5906
5810 5816 5822 5827 5833 5836 5837 5835 5840 5846 5848 5853 5857 5862 5862 5866 5868 5872 5876 5878 5881 5885 5888 5891 5894 5896 5899 5900 5902 5904 5906 5907 5908 5909 5910 5910 5911 5912 5912 5912 5912 5912 5911 5910 5910 5908 5907 5906 5904
5803 5808 5814 5821 5826 5832 5825 5825 5832 5836 5842 5844 5850 5854 5856 5859 5863 5866 5869 5873 5875 5878 5882 5885 5888 5892 5894 5897 5899 5900 5902 5903 5905 5906 5907 5908 5908 5909 5909 5910 5910 5910 5909 5908 5907 5906 5905 5904 5903
5797 5800 5808 5816 5818 5822 5819 5819 5829 5829 5835 5837 5841 5848 5849 5854 5856 5860 5864 5867 5871 5873 5876 5879 5883 5886 5889 5892 5894 5896 5898 5899 5901 5902 5903 5904 5905 5906 5906 5907 5907 5907 5907 5906 5905 5903 5902 5902 5901
5790 5796 5801 5805 5809 5811 5811 5816 5822 5823 5828 5831 5833 5836 5842 5846 5851 5851 5857 5861 5865 5868 5870 5872 5875 5880 5883 5885 5889 5891 5893 5896 5897 5899 5899 5900 5901 5902 5903 5903 5903 5903 5903 5902 5901 5900 5899 5899 5898
5786 5790 5792 5795 5798 5801 5804 5809 5816 5819 5819 5824 5823 5826 5833 5839 5842 5847 5852 5854 5858 5862 5864 5867 5871 5873 5877 5880 5883 5885 5887 5889 5892 5893 5895 5895 5896 5897 5898 5898 5899 5899 5900 5899 5899 5897 5896 5895 5896
5780 5782 5783 5787 5790 5795 5800 5803 5809 5814 5819 5813 5816 5816 5821 5828 5832 5836 5842 5849 5851 5855 5858 5862 5865 5868 5870 5872 5876 5879 5881 5883 5884 5886 5888 5890 5890 5891 5891 5893 5894 5894 5894 5895 5895 5894 5893 5892 5892
5773 5775 5778 5781 5784 5789 5794 5798 5802 5807 5805 5807 5810 5811 5811 5816 5821 5824 5829 5834 5841 5846 5848 5852 5856 5859 5863 5865 5868 5870 5873 5876 5877 5879 5881 5883 5884 5885 5885 5885 5886 5888 5888 5887 5889 5890 5888 5887 5887
5765 5768 5770 5774 5776 5781 5786 5790 5793 5797 5796 5801 5802 5806 5805 5807 5812 5815 5817 5821 5827 5835 5840 5843 5847 5850 5853 5856 5859 5860 5863 5866 5868 5870 5873 5873 5873 5874 5876 5877 5878 5880 5881 5882 5882 5883 5883 5882 5882
5758 5760 5763 5764 5768 5772 5776 5784 5783 5783 5786 5790 5794 5796 5797 5799 5799 5803 5806 5809 5814 5819 5823 5831 5836 5838 5843 5845 5848 5850 5852 5854 5858 5860 5864 5865 5865 5867 5868 5866 5871 5873 5873 5874 5875 5878 5877 5877 5876
5749 5752 5755 5758 5761 5764 5767 5779 5775 5773 5779 5781 5785 5787 5789 5790 5792 5793 5795 5797 5802 5807 5811 5814 5819 5828 5833 5836 5838 5839 5842 5845 5847 5850 5853 5855 5854 5856 5858 5862 5863 5865 5866 5867 5867 5869 5871 5871 5871
5743 5745 5747 5749 5750 5754 5757 5762 5766 5764 5770 5773 5774 5777 5778 5780 5781 5783 5786 5789 5791 5795 5797 5802 5807 5814 5821 5824 5826 5829 5832 5834 5835 5840 5839 5841 5843 5846 5849 5851 5852 5853 5856 5857 5859 5862 5864 5864 5864
5739 5741 5741 5741 5742 5744 5747 5750 5754 5755 5757 5762 5763 5765 5768 5771 5774 5772 5774 5776 5779 5782 5785 5789 5794 5800 5807 5811 5815 5818 5821 5824 5826 5829 5833 5835 5835 5834 5836 5839 5843 5845 5847 5849 5852 5854 5854 5856 5856
5734 5735 5735 5736 5736 5737 5738 5739 5739 5742 5748 5749 5752 5752 5756 5760 5764 5764 5763 5764 5766 5770 5773 5776 5781 5789 5795 5801 5805 5809 5811 5812 5813 5815 5817 5817 5821 5820 5818 5827 5833 5834 5839 5840 5843 5844 5846 5848 5849
5728 5728 5729 5731 5730 5726 5729 5731 5729 5730 5734 5736 5740 5743 5743 5745 5749 5750 5751 5751 5753 5757 5761 5765 5768 5774 5782 5789 5795 5796 5800 5802 5802 5803 5805 5809 5809 5811 5818 5818 5821 5824 5827 5831 5833 5835 5837 5838 5840
5721 5721 5722 5722 5721 5720 5718 5719 5720 5722 5723 5723 5725 5726 5727 5728 5730 5733 5736 5739 5741 5744 5748 5753 5757 5761 5769 5777 5780 5784 5788 5791 5792 5795 5799 5801 5803 5805 5806 5810 5813 5815 5817 5823 5824 5827 5827 5827 5829
5715 5713 5713 5713 5712 5712 5711 5703 5715 5712 5714 5713 5710 5707 5708 5710 5711 5715 5720 5724 5728 5731 5733 5737 5742 5747 5753 5759 5764 5769 5775 5778 5781 5783 5785 5787 5792 5795 5796 5799 5802 5805 5807 5811 5813 5815 5818 5815 5817
5708 5705 5704 5703 5701 5698 5702 5697 5702 5701 5700 5699 5696 5692 5691 5691 5695 5701 5705 5708 5712 5717 5721 5725 5728 5732 5735 5743 5748 5755 5760 5766 5769 5772 5773 5777 5781 5784 5787 5789 5793 5796 5799 5800 5801 5802 5802 5803 5803
5697 5697 5695 5693 5692 5686 5689 5683 5680 5682 5681 5679 5680 5680 5679 5679 5679 5683 5687 5691 5697 5702 5707 5712 5716 5720 5723 5728 5734 5740 5746 5751 5755 5758 5761 5764 5769 5772 5774 5778 5782 5785 5788 5790 5790 5789 5789 5789 5788
5690 5688 5685 5683 5682 5679 5676 5671 5674 5668 5657 5657 5656 5659 5661 5662 5662 5663 5667 5671 5678 5685 5692 5697 5702 5707 5711 5715 5719 5724 5730 5735 5740 5742 5746 5750 5755 5759 5762 5765 5769 5773 5777 5777 5779 5779 5781 5777 5776
5682 5681 5677 5668 5670 5666 5663 5658 5658 5650 5639 5638 5640 5642 5645 5648 5650 5652 5653 5656 5662 5669 5675 5681 5688 5694 5699 5703 5707 5710 5715 5719 5723 5726 5731 5736 5740 5746 5750 5754 5757 5761 5764 5766 5768 5770 5773 5774 5774
5671 5670 5667 5660 5658 5650 5649 5648 5645 5636 5631 5628 5626 5628 5631 5634 5638 5640 5641 5643 5647 5653 5659 5664 5671 5679 5686 5692 5694 5697 5699 5703 5707 5711 5716 5722 5728 5732 5737 5741 5746 5751 5754 5756 5757 5758 5761 5763 5765
5663 5660 5656 5649 5644 5639 5636 5633 5632 5627 5626 5619 5619 5617 5619 5621 5623 5626 5629 5632 5634 5637 5643 5649 5656 5664 5671 5675 5680 5683 5685 5687 5692 5697 5703 5708 5713 5719 5724 5730 5735 5739 5742 5745 5747 5748 5749 5752 5755
5653 5650 5645 5640 5637 5630 5626 5628 5623 5616 5614 5611 5610 5609 5609 5610 5611 5613 5615 5619 5621 5624 5626 5633 5641 5650 5656 5661 5665 5667 5669 5673 5678 5683 5689 5695 5700 5706 5711 5717 5721 5725 5729 5732 5736 5738 5742 5745 5747
5644 5640 5636 5633 5629 5625 5620 5620 5615 5610 5607 5603 5597 5597 5599 5600 5602 5604 5605 5606 5609 5611 5614 5617 5625 5634 5640 5646 5650 5652 5655 5661 5665 5669 5675 5681 5686 5691 5697 5703 5708 5712 5716 5721 5725 5729 5732 5735 5739
Wind_Speed
43 40 35 33 33 31 28 28 30 31 31 34 34 32 30 27 22 21 17 15 16 11 7 6 4 2 3 4 2 2 2 2 4 6 8 10 9 9 8 8 10 10 11 10 10 11 11 11 11
41 44 38 36 36 32 29 29 30 31 32 34 35 35 33 29 24 25 23 20 21 17 11 9 5 3 2 1 1 2 2 1 2 4 6 6 7 7 8 8 8 9 10 10 11 11 12 13 13
47 45 46 41 38 33 32 33 32 32 31 34 35 38 36 33 30 30 28 27 22 17 15 12 9 5 4 3 0 1 2 1 2 4 4 4 5 6 6 7 7 6 8 9 11 12 12 14 15
52 49 48 48 39 35 34 38 36 35 33 33 33 34 37 38 36 34 33 30 30 24 20 16 12 9 6 6 4 2 2 2 1 3 2 2 3 4 5 5 6 7 7 8 10 12 13 14 15
52 50 50 47 43 36 35 39 37 38 38 38 35 34 35 41 40 39 37 35 35 32 27 21 16 12 13 10 7 6 5 4 2 2 1 0 1 0 2 4 6 7 7 8 10 12 13 14 15
55 56 52 50 47 41 36 40 39 39 38 39 39 38 33 36 43 42 41 40 39 38 34 28 23 20 15 15 14 10 8 7 5 6 5 5 4 4 4 5 6 7 8 8 10 12 12 14 16
53 53 55 51 49 44 40 41 42 40 38 40 38 37 41 39 41 47 47 44 41 40 36 33 28 25 20 18 18 17 12 8 8 6 8 8 10 10 9 7 9 8 8 10 11 14 14 13 15
48 53 53 56 53 45 44 43 43 42 41 40 39 39 42 43 43 44 48 49 43 35 33 31 27 26 25 22 21 18 18 15 11 10 11 10 10 11 13 14 11 9 9 10 12 14 15 14 15
45 47 51 46 48 44 42 48 45 41 42 45 44 43 42 43 44 45 45 47 48 42 33 33 32 29 28 25 25 23 22 21 17 16 16 14 14 15 14 12 10 9 9 11 14 15 16 17 17
37 43 42 40 42 41 39 42 45 52 50 47 46 47 46 46 44 49 46 47 48 47 41 37 34 33 32 27 26 25 25 24 24 21 23 20 18 18 16 14 14 11 11 11 14 15 17 17 18
32 34 38 39 43 40 42 42 43 47 51 50 55 55 53 50 51 49 47 47 50 50 49 41 36 34 33 30 29 30 28 26 26 24 22 24 23 22 19 19 18 17 16 16 15 16 19 20 19
33 35 37 36 39 41 39 39 40 41 43 51 53 57 57 56 54 53 52 49 49 49 51 49 48 42 37 34 33 33 32 30 28 28 25 25 25 23 24 24 24 23 22 21 20 18 19 21 22
36 37 37 37 37 38 37 37 39 41 45 48 51 56 58 56 56 55 55 53 49 54 54 54 49 47 45 42 40 38 37 38 37 35 32 30 29 30 30 28 34 27 29 27 25 23 21 23 24
39 39 40 41 40 40 39 39 40 41 46 47 50 52 58 59 58 58 59 58 55 53 55 58 54 52 47 44 42 39 40 44 45 41 36 37 36 36 37 34 38 33 35 33 29 30 29 27 28
33 36 40 43 44 44 45 41 43 44 46 48 50 54 56 59 61 61 61 62 59 56 55 55 56 55 50 49 51 60 59 57 46 41 45 43 41 41 36 36 36 43 37 46 34 34 32 33 34
28 31 34 39 41 43 46 41 45 48 48 50 50 54 56 58 61 63 63 63 61 59 58 59 56 51 48 49 48 50 52 54 52 53 51 53 50 43 37 43 43 49 45 44 33 35 38 38 38
30 35 35 36 36 37 41 43 42 46 47 50 53 53 57 59 61 62 64 65 64 63 61 61 59 54 48 44 46 48 53 53 54 54 54 59 54 50 47 44 45 46 49 50 48 46 43 45 43
30 32 34 37 38 40 40 44 39 41 46 46 51 55 56 59 60 63 63 64 65 66 66 65 62 57 49 48 48 51 48 51 49 49 56 55 44 51 54 53 50 53 52 51 49 51 48 43 41
30 31 33 34 36 38 38 42 41 41 41 44 48 54 56 58 60 62 65 66 67 68 68 67 64 59 54 47 48 51 50 47 44 44 43 41 56 50 51 57 60 56 59 56 55 56 51 48 49
31 35 38 38 40 44 43 41 43 43 43 43 43 47 53 58 59 61 64 66 69 70 69 67 65 63 59 57 50 52 50 48 48 46 42 47 48 59 52 52 62 61 61 63 61 55 53 54 55
25 28 29 30 34 37 39 38 41 43 47 50 49 46 45 48 55 60 62 64 65 68 70 71 71 71 63 57 55 54 50 50 52 50 42 39 45 49 54 60 56 57 68 63 61 61 56 59 58
26 31 32 33 35 36 39 44 37 42 41 44 46 49 51 52 53 55 60 63 63 65 67 69 70 73 73 68 66 55 53 49 53 54 53 51 49 52 56 55 58 57 56 60 61 60 61 64 62
27 31 34 36 39 43 41 47 42 44 44 43 46 50 54 57 59 59 57 59 61 63 65 68 68 69 71 69 69 69 58 55 62 65 63 61 55 51 55 55 54 55 56 54 60 64 60 62 61
31 33 36 39 41 48 45 50 54 49 50 49 47 49 52 51 56 58 60 59 58 61 63 61 64 64 65 65 65 64 64 65 66 67 62 62 57 54 55 57 59 60 58 58 55 59 62 63 59
32 35 39 43 43 46 47 52 50 49 50 52 46 46 47 41 48 58 61 61 60 60 61 60 58 57 56 54 55 55 56 56 56 58 60 61 57 53 52 53 53 53 51 52 56 62 59 53 53
34 35 37 45 45 50 47 52 49 50 50 44 40 44 45 41 38 40 50 59 58 59 59 59 57 57 53 51 53 52 52 54 55 56 58 58 57 55 54 53 52 52 49 51 53 53 49 54 47
36 37 39 42 44 48 49 49 42 41 41 37 35 38 36 37 41 41 41 44 57 57 59 59 56 54 54 51 49 47 48 48 51 55 58 59 57 57 56 55 53 52 52 51 54 55 48 46 40
36 38 38 38 41 44 43 43 37 33 29 34 30 31 32 29 32 37 37 44 47 54 59 60 60 55 54 54 48 47 46 46 52 56 56 58 59 59 57 53 53 53 51 50 51 52 50 44 36
35 35 36 36 35 38 39 34 29 29 29 26 29 35 39 40 32 36 39 38 42 47 48 59 60 58 57 55 54 52 47 47 50 55 58 57 57 57 55 51 50 51 49 46 46 47 48 46 43
34 33 32 32 35 37 34 26 25 27 29 41 29 25 27 35 38 36 39 38 35 33 35 44 55 62 61 58 56 55 51 52 53 54 55 58 60 57 53 51 50 50 49 46 43 41 41 40 40
Wind_Direction
225 224 226 227 225 226 224 225 232 233 230 225 223 227 233 235 235 242 232 240 232 232 205 180 172 338 285 305 294 66 67 91 84 62 59 66 61 48 39 32 26 21 15 17 13 7 4 358 359
224 227 226 229 229 225 227 228 230 234 231 231 226 228 237 242 235 232 239 239 232 236 213 205 210 214 217 208 111 82 39 36 82 61 67 63 64 48 29 27 28 21 13 4 4 5 2 354 347
228 231 225 229 230 228 227 229 230 231 230 232 228 228 237 240 237 239 241 243 243 229 224 232 237 231 235 229 156 103 56 81 87 72 68 73 59 42 34 20 12 15 6 2 359 359 357 353 348
228 234 230 226 233 231 230 229 226 229 226 232 233 228 230 234 238 242 245 242 250 249 239 241 241 231 239 267 279 308 4 4 37 93 93 62 53 29 10 6 359 355 355 353 352 349 354 353 350
231 234 236 231 235 238 235 238 238 236 232 229 232 231 225 226 234 241 243 245 247 253 251 254 248 245 241 255 259 278 300 307 298 237 221 165 106 59 318 331 337 345 343 343 339 343 353 349 345
236 232 234 235 237 240 233 240 239 240 243 236 230 233 232 230 227 236 241 246 247 249 253 253 250 249 245 250 258 268 289 304 289 275 246 246 234 249 286 316 330 337 330 328 333 341 347 344 338
235 235 235 237 239 241 239 236 239 241 241 245 239 233 236 231 229 227 234 242 247 248 251 251 253 252 250 250 253 257 265 267 281 272 251 250 254 258 260 271 290 304 307 313 326 332 335 341 336
235 236 237 237 241 240 235 228 233 236 240 243 244 238 239 239 233 235 231 238 242 244 244 246 244 251 255 250 255 255 255 256 274 284 274 255 253 253 268 275 278 281 287 293 304 315 321 320 329
233 235 238 238 239 240 238 245 236 236 238 242 247 248 245 240 239 237 239 236 240 241 236 239 243 247 253 255 252 252 251 252 262 277 286 279 253 257 255 269 263 267 277 287 294 304 310 315 318
235 237 237 238 238 237 238 239 243 250 243 248 244 247 244 247 246 238 236 240 236 238 238 236 236 242 247 247 246 248 242 255 265 267 276 275 265 262 257 256 251 245 262 275 284 293 304 310 316
236 236 236 234 236 234 233 235 234 243 253 250 250 252 252 248 247 248 246 240 244 241 244 244 244 242 240 244 248 247 245 250 258 264 264 266 274 263 258 257 253 252 258 267 276 287 294 300 309
233 235 237 237 235 236 236 235 238 239 237 240 243 250 255 256 256 255 252 245 252 246 245 247 249 251 247 242 235 240 245 246 251 257 251 252 255 251 251 254 256 253 255 260 266 276 284 293 300
237 238 241 241 242 240 239 239 237 237 238 236 239 244 251 253 256 257 256 253 245 243 245 246 244 247 247 247 244 244 246 250 248 245 247 246 246 243 252 242 252 248 252 248 256 266 274 283 288
238 239 241 243 243 243 241 240 239 236 239 237 239 240 246 250 251 253 256 257 252 244 239 239 241 243 243 242 245 244 246 247 243 241 232 233 230 229 237 244 254 243 248 244 244 250 261 271 277
248 246 245 245 245 246 243 239 241 237 237 239 238 240 242 245 249 251 254 256 258 260 255 248 245 245 248 254 252 251 249 250 245 238 233 234 231 236 242 245 251 261 260 250 252 249 257 265 269
257 256 255 255 255 254 252 244 245 244 240 241 239 241 241 244 246 249 252 255 257 258 261 263 262 259 254 253 255 249 246 243 243 249 239 233 233 229 232 241 246 254 258 257 251 248 253 255 264
249 253 255 258 258 257 258 255 247 249 246 244 244 240 241 242 244 248 249 251 254 255 256 257 259 258 255 249 247 252 253 249 246 245 243 245 231 235 237 237 240 242 251 257 258 253 264 255 258
256 257 258 260 262 263 262 262 255 248 249 246 245 245 242 242 243 246 248 249 251 253 256 257 258 257 257 243 248 248 247 253 249 250 244 254 238 235 234 236 238 249 247 254 256 252 264 262 258
253 258 261 262 266 262 262 261 264 261 254 250 246 244 245 245 244 245 248 250 249 249 252 255 258 259 259 250 246 248 249 250 254 250 246 243 240 237 225 239 248 242 250 253 257 261 266 263 267
255 257 259 261 263 264 263 259 262 263 261 258 251 250 249 245 244 245 244 246 249 250 250 253 257 259 259 259 251 249 243 248 251 246 246 243 242 245 248 242 236 246 245 253 251 254 255 262 267
268 269 269 270 267 272 273 265 263 261 263 264 264 259 254 252 248 244 243 244 245 248 252 252 252 255 257 255 251 241 245 248 251 248 246 256 253 249 250 248 248 253 246 251 256 261 255 261 268
272 274 275 275 274 273 269 275 270 272 270 268 265 264 261 253 249 246 245 244 242 245 247 250 252 253 255 252 251 244 229 237 243 244 247 255 251 250 252 249 250 262 262 265 265 270 261 263 266
272 272 275 277 277 277 279 280 282 279 274 273 265 263 260 258 254 248 246 246 246 242 244 246 248 250 252 253 253 253 241 250 246 245 255 258 257 253 254 256 257 258 261 265 266 266 267 268 269
282 281 279 280 284 286 294 289 292 295 289 280 272 260 258 258 254 250 245 242 241 243 245 245 247 250 252 254 252 253 253 254 254 257 256 253 250 249 251 253 254 255 257 261 260 266 263 261 259
276 281 283 281 285 288 289 285 294 294 287 281 266 251 249 255 250 247 244 241 239 238 240 244 245 246 249 252 253 252 253 251 250 249 249 247 248 248 251 252 254 255 256 260 259 261 268 265 264
281 286 292 291 293 291 295 297 301 293 286 282 271 258 256 259 246 252 251 247 244 242 241 239 240 243 245 244 241 240 241 242 243 246 246 247 248 250 249 250 253 254 255 256 254 258 261 262 275
291 295 294 294 295 295 299 300 299 291 286 282 272 253 264 254 249 256 255 251 245 242 242 242 239 237 240 243 240 238 239 241 242 243 244 245 246 247 248 248 249 251 252 253 253 258 263 266 268
293 294 296 297 299 303 307 306 301 301 283 277 278 254 249 249 244 240 248 252 247 245 242 241 242 241 242 242 239 245 250 248 242 242 244 245 246 246 247 247 247 249 251 250 252 255 260 267 268
294 297 296 294 300 302 306 303 317 298 288 264 258 265 262 244 242 241 244 247 245 247 245 239 239 239 241 243 244 244 246 242 245 245 243 245 246 246 247 246 248 249 251 253 253 255 257 260 265
299 299 295 294 299 300 304 304 314 293 295 268 246 238 252 248 242 248 250 248 247 247 253 235 233 238 240 240 240 239 238 236 241 243 245 245 245 246 245 245 245 249 251 252 253 255 256 257 259